Hourly Weather Roundup
Issued by NWS

Home | Current Version | Previous Version | Text Only | Print | Product List | Glossary On
Versions: 1 2 3 4 5 6 7 8 9 10 11 12 13 14 15 16 17 18 19 20 21 22 23 24 25 26 27 28 29 30 31 32 33 34 35 36 37 38 39 40 41 42 43 44 45 46 47 48 49 50
000
NZUS43 KILX 282210
HWRCRS

NWR Hourly Weather Roundup
National Weather Service Lincoln IL
500 PM CDT TUE MAR 28 2017


CITY           SKY/WX    TMP DP  RH WIND       PRES   REMARKS
Champaign      CLOUDY    56  43  61 N14       30.08S
Lawrenceville  CLOUDY    62  50  64 N7        30.05S
Peoria         CLOUDY    53  43  68 NE3       30.11S
Springfield    CLOUDY    55  46  71 NE10      30.09F
$$


CITY           SKY/WX    TMP DP  RH WIND       PRES   REMARKS
Bloomington    CLOUDY    51  44  77 N15       30.10
Decatur        CLOUDY    55  45  68 N12       30.09S
Effingham      CLOUDY    59  49  70 N5        30.08R
Flora          CLOUDY    62  50  64 NW3       30.06R
Galesburg      CLOUDY    50  44  79 NE8       30.11S
Jacksonville   CLOUDY    54  46  74 NE10      30.09R
Lacon          CLOUDY    49  43  79 NE6       30.12S
La Salle       CLOUDY    47  39  74 NE8       30.13S
Lincoln        CLOUDY    54  47  78 N7        30.10S
Litchfield     CLOUDY    55  48  76 N8        30.07S

CITY           SKY/WX    TMP DP  RH WIND       PRES   REMARKS
Macomb         CLOUDY    52  47  81 E6        30.12S
Mattoon        CLOUDY    57  47  69 N12       30.06F
Moline         CLOUDY    51  41  68 E12       30.12S
Olney          PTSUNNY   61  52  72 N5        30.06R
Paris          CLOUDY    56  47  72 N8        30.08S
Pontiac        CLOUDY    49  44  82 N12       30.13S
Quincy         CLOUDY    52  50  93 NE10      30.08S
Rantoul        CLOUDY    53  44  71 N15       30.10R
Robinson       PTSUNNY   61  49  66 N5        30.06S
Taylorville    CLOUDY    55  46  71 N10       30.09R
Terre Haute    CLOUDY    59  46  62 N8        30.07S
$$


CITY           SKY/WX    TMP DP  RH WIND       PRES   REMARKS
Burlington     CLOUDY    51  47  86 NE9       30.10S
Chicago        PTSUNNY   46  37  71 NE13      30.14S
Des Moines     CLOUDY    52  42  69 E9        30.10R
Evansville     CLOUDY    61  52  72 N3        30.05S
Indianapolis   CLOUDY    56  45  66 N10       30.07R
Kansas City    CLOUDY    53  49  86 E12       30.01F
Milwaukee      CLOUDY    37  34  89 NE9       30.18S WCI  30
St Louis       CLOUDY    59  48  67 E7        30.06S
$$





USA.gov is the U.S. government's official web portal to all federal, state and local government web resources and services.